Location: Dobrzeń Wielki
(50.7693°N, 17.8414°E)
Time: 23:14:59
(UTC+02:00)

ISS - Visible Passes

Search period start: 22 September 2018 00:00
Search period end: 02 October 2018 00:00
Orbit: 403 x 408 km, 51.6° (Epoch: 23 September)

Date Brightness Start Highest point End Pass type
(mag) Time Alt. Az. Time Alt. Az. Time Alt. Az.
22 Sep -1.8 20:27:41 10° SSW 20:28:53 17° S 20:28:53 17° S visible
23 Sep -1.8 19:36:48 10° S 19:38:38 14° SE 19:39:38 13° ESE visible
23 Sep -1.5 21:11:23 10° SW 21:12:21 18° SW 21:12:21 18° SW visible
24 Sep -3.3 20:19:43 10° SW 20:22:49 38° SSE 20:22:54 38° SSE visible
25 Sep -2.6 19:28:15 10° SSW 19:31:03 26° SSE 19:33:18 13° E visible
25 Sep -2.4 21:03:58 10° WSW 21:06:00 34° WSW 21:06:00 34° WSW visible
26 Sep -3.8 20:12:06 10° WSW 20:15:23 64° SSE 20:16:15 42° E visible
26 Sep -0.6 21:48:36 10° W 21:48:56 12° W 21:48:56 12° W visible
27 Sep -3.3 19:20:21 10° SW 19:23:31 44° SSE 19:26:26 12° E visible
27 Sep -2.8 20:56:38 10° W 20:59:06 47° W 20:59:06 47° W visible
28 Sep -3.9 20:04:40 10° WSW 20:07:59 89° NE 20:09:12 36° ENE visible
28 Sep -0.7 21:41:16 10° W 21:41:52 14° W 21:41:52 14° W visible
29 Sep -3.8 19:12:45 10° WSW 19:16:02 72° SSE 19:19:14 11° ENE visible
29 Sep -3.0 20:49:17 10° W 20:51:54 51° WNW 20:51:54 51° WNW visible
30 Sep -3.8 19:57:16 10° W 20:00:35 75° N 20:01:54 33° ENE visible
30 Sep -0.8 21:33:51 10° WNW 21:34:34 16° WNW 21:34:34 16° WNW visible
01 Oct -3.8 19:05:16 10° W 19:08:34 84° NNW 19:11:52 10° E visible
01 Oct -3.2 20:41:51 10° W 20:44:32 55° WNW 20:44:32 55° WNW visible
